Tracking 19286 objects as of 19-Nov-2018
HD Live streaming from Space Station
objects crossing your sky now

COSMOS 2407

Track COSMOS 2407 now!
10-day predictions
COSMOS 2407 is classified as:


NORAD ID: 28380
Int'l Code: 2004-028A
Perigee: 955.0 km
Apogee: 1,015.0 km
Inclination: 83.0 °
Period: 104.6 minutes
Semi major axis: 7356 km
RCS: 1.9044 m2 (large)
Launch date: July 22, 2004
Source: Commonwealth of Independent States (former USSR) (CIS)
Launch site: PLESETSK MISSILE AND SPACE COMPLEX (PKMTR)

Normally part of a six-satellite constellation.
aabbcc
Your satellite tracking list
Your tracking list is empty




NASA's NSSDC Master Catalog

Two Line Element Set (TLE):
1 28380U 04028A   18322.81611523 +.00000012 +00000-0 -34583-5 0  9990
2 28380 082.9587 323.6831 0040772 071.1029 289.4539 13.76058657719463
Source of the keplerian elements: AFSPC